R/V Knorr Calliope CSV data file  (Time stamps are GMT)
Date, Time_GMT, Depth12, Depth35, Air_Temp, WXT5_Ta, WXT5_Pa, dec_lat, dec_lon, EDO_knt, GPS_COG, GPS_SOG, Gyro, IMET_BPR, IMET_SWR, WXT5_Ri, WXT5_Rc, HRH, WXT5_Ua, WXT5_Dm, WXT5_Sm, SBE45C, SBE45S, SBE45T, Salinity, SSCND, Fluorometer, SSTMP, SSV, Wnd_Dir, TWD_5, Wnd_Spd, TWS_5, HdChkSum=52
2008/03/28, 00:00:36, 4261.00, 0.00, 3.32, 3.70, 1010.2, 51.0116070, -37.0078870, , 46.20, 13.09, 43.30, 1010.65, 0.10, 0.0, 104.20, 63.61, 67.3, 295, 7.7, 38.01700, 35.07650, 9.8446, 35.0765, 38.0170, 124.90, 8.8885, 1485.88, 296.10, 285.9, 11.27, 8.5, 52
2008/03/28, 00:01:36, 4256.00, 0.00, 3.18, 3.80, 1009.5, 51.0138100, -37.0041900, , 44.60, 12.66, 43.60, 1009.84, 0.20, 0.0, 104.20, 62.04, 66.4, 294, 10.1, 38.00360, 35.07760, 9.8292, 35.0776, 38.0036, 127.60, 8.9075, 1485.94, 295.60, 290.2, 11.51, 10.1, 52
2008/03/28, 00:02:36, 4259.00, 0.00, 3.15, 3.70, 1010.2, 51.0160880, -37.0006320, , 45.00, 12.03, 41.20, 1010.32, 0.00, 0.0, 104.20, 61.36, 65.3, 293, 7.9, 38.00600, 35.07790, 9.8315, 35.0779, 38.0060, 134.70, 8.9278, 1486.03, 302.90, 288.8, 11.73, 8.3, 52
2008/03/28, 00:03:35, 4258.00, 0.00, 3.15, 3.70, 1009.6, 51.0183500, -36.9970050, , 28.30, 12.08, 40.50, 1010.40, -0.10, 0.0, 104.20, 64.19, 64.9, 299, 7.3, 38.00790, 35.08040, 9.8311, 35.0804, 38.0079, 139.00, 8.9495, 1486.10, 291.10, 294.0, 10.88, 8.8, 52
2008/03/28, 00:04:36, 4252.00, 0.00, 3.21, 3.70, 1009.8, 51.0206600, -36.9933300, , 56.40, 12.75, 39.50, 1009.81, 0.10, 0.0, 104.20, 61.75, 66.8, 301, 9.0, 38.02110, 35.08400, 9.8412, 35.0840, 38.0211, 139.00, 8.9712, 1486.18, 299.80, 302.1, 9.36, 7.0, 52
2008/03/28, 00:05:36, 4246.00, 0.00, 3.21, 3.70, 1009.9, 51.0230270, -36.9898450, , 34.90, 12.04, 42.20, 1010.26, 0.10, 0.0, 104.20, 61.75, 65.3, 306, 9.1, 38.05230, 35.08530, 9.8728, 35.0853, 38.0523, 138.40, 8.9902, 1486.26, 301.00, 305.2, 11.80, 7.6, 52
2008/03/28, 00:06:36, 4248.00, 0.00, 3.23, 3.70, 1010.3, 51.0253400, -36.9861900, , 42.10, 11.31, 40.80, 1010.26, 0.00, 0.0, 104.20, 62.88, 66.4, 288, 7.0, 38.07190, 35.08610, 9.8926, 35.0861, 38.0719, 138.00, 9.0057, 1486.32, 292.50, 277.9, 10.38, 7.8, 52
2008/03/28, 00:07:36, 4246.00, 0.00, 3.21, 3.70, 1009.5, 51.0277080, -36.9826130, , 38.30, 13.04, 38.40, 1009.96, -0.10, 0.0, 104.21, 63.25, 65.9, 298, 8.7, 38.08990, 35.08930, 9.9083, 35.0893, 38.0899, 136.50, 9.0225, 1486.38, 290.50, 295.6, 10.62, 8.4, 52
2008/03/28, 00:08:36, 4242.00, 0.00, 3.34, 3.70, 1009.9, 51.0300550, -36.9790450, , 36.20, 11.49, 40.20, 1009.93, -0.10, 0.0, 104.21, 63.53, 66.8, 286, 7.0, 38.12060, 35.09260, 9.9373, 35.0926, 38.1206, 138.40, 9.0371, 1486.44, 305.90, 281.2, 12.62, 9.5, 52
2008/03/28, 00:09:36, 4248.00, 0.00, 3.21, 3.70, 1009.2, 51.0323630, -36.9754050, , 38.00, 12.05, 41.30, 1010.35, 0.00, 0.0, 104.21, 61.75, 65.2, 268, 9.8, 38.15570, 35.09450, 9.9723, 35.0945, 38.1557, 137.20, 9.0486, 1486.48, 293.70, 279.8, 9.91, 12.3, 52
2008/03/28, 00:10:37, 4244.00, 0.00, 3.21, 3.70, 1009.7, 51.0346320, -36.9717670, , 47.60, 12.34, 43.50, 1010.53, 0.20, 2.1, 104.24, 61.75, 64.7, 281, 10.6, 38.18900, 35.09550, 10.0064, 35.0955, 38.1890, 135.60, 9.0562, 1486.52, 279.00, 288.1, 9.32, 12.0, 52
2008/03/28, 00:11:36, 4247.00, 0.00, 3.43, 3.80, 1010.0, 51.0368280, -36.9679200, , 47.70, 12.44, 45.20, 1010.85, 0.10, 0.0, 104.24, 62.83, 65.5, 274, 10.3, 38.20870, 35.09770, 10.0249, 35.0977, 38.2087, 135.60, 9.0622, 1486.54, 296.60, 289.7, 10.77, 12.2, 52
2008/03/28, 00:12:36, 4253.00, 0.00, 3.32, 3.70, 1009.4, 51.0390150, -36.9641480, , 63.90, 13.02, 42.00, 1010.06, -0.20, 0.0, 104.24, 60.57, 62.9, 273, 9.2, 38.23200, 35.09840, 10.0488, 35.0984, 38.2320, 134.70, 9.0652, 1486.55, 272.60, 273.2, 8.16, 9.9, 52
2008/03/28, 00:13:36, 4256.00, 0.00, 3.26, 3.80, 1009.9, 51.0411650, -36.9604620, , 36.50, 11.78, 45.70, 1010.38, 0.00, 0.0, 104.24, 60.17, 64.9, 295, 11.0, 38.25500, 35.09890, 10.0724, 35.0989, 38.2550, 135.00, 9.0648, 1486.55, 288.40, 307.5, 9.54, 11.5, 52
2008/03/28, 00:14:36, 4258.00, 0.00, 3.23, 3.80, 1010.0, 51.0433730, -36.9566280, , 43.50, 10.32, 44.10, 1009.69, -0.30, 0.0, 104.24, 61.28, 63.8, 292, 8.8, 38.27550, 35.10140, 10.0915, 35.1014, 38.2755, 134.10, 9.0630, 1486.54, 297.80, 294.6, 11.03, 9.4, 52
2008/03/28, 00:15:36, 4259.00, 0.00, 3.23, 3.70, 1009.8, 51.0455320, -36.9529230, , 53.10, 10.61, 46.80, 1010.36, -0.20, 0.0, 104.24, 61.52, 63.3, 278, 7.9, 38.28560, 35.10140, 10.1021, 35.1014, 38.2856, 134.40, 9.0618, 1486.54, 292.60, 275.9, 9.67, 9.0, 52
2008/03/28, 00:16:36, 4238.00, 0.00, 3.18, 3.70, 1009.5, 51.0477130, -36.9493100, , 53.00, 12.02, 43.70, 1010.42, -0.50, 0.0, 104.24, 60.47, 63.5, 267, 8.4, 38.29890, 35.10190, 10.1156, 35.1019, 38.2989, 133.50, 9.0615, 1486.54, 293.90, 279.4, 9.63, 10.5, 52
2008/03/28, 00:17:36, 4218.00, 0.00, 3.15, 3.70, 1009.3, 51.0498370, -36.9455420, , 50.70, 11.93, 43.60, 1009.84, -0.10, 0.0, 104.24, 60.28, 63.5, 281, 9.2, 38.30560, 35.10250, 10.1220, 35.1025, 38.3056, 132.80, 9.0626, 1486.55, 278.60, 285.5, 8.59, 9.7, 52
2008/03/28, 00:18:36, 4202.00, 0.00, 3.40, 3.70, 1009.7, 51.0520330, -36.9417970, , 56.40, 11.75, 42.80, 1010.19, -0.10, 0.0, 104.24, 62.67, 66.1, 292, 10.3, 38.30320, 35.10160, 10.1205, 35.1016, 38.3032, 133.20, 9.0665, 1486.56, 279.30, 299.8, 8.38, 9.2, 52
2008/03/28, 00:19:36, 4195.00, 0.00, 3.18, 3.70, 1009.3, 51.0542250, -36.9381000, , 56.30, 12.14, 47.10, 1010.12, -0.30, 0.0, 104.24, 59.83, 62.5, 292, 8.9, 38.30600, 35.10410, 10.1207, 35.1041, 38.3060, 133.50, 9.0723, 1486.58, 288.40, 289.2, 10.65, 9.4, 52
2008/03/28, 00:20:35, 4181.00, 0.00, 3.18, 3.70, 1009.9, 51.0565230, -36.9343070, , 44.70, 12.87, 44.70, 1010.07, -0.50, 0.0, 104.24, 60.28, 63.1, 286, 10.1, 38.30250, 35.10200, 10.1192, 35.1020, 38.3025, 131.60, 9.0792, 1486.61, 290.80, 294.3, 9.37, 10.3, 52
2008/03/28, 00:21:36, 4186.00, 0.00, 3.18, 3.60, 1009.7, 51.0587470, -36.9304500, , 44.00, 11.95, 41.30, 1009.90, -0.40, 0.0, 104.24, 59.20, 61.9, 284, 10.0, 38.29710, 35.10060, 10.1150, 35.1006, 38.2971, 131.30, 9.0846, 1486.63, 292.90, 293.5, 9.32, 10.2, 52
2008/03/28, 00:22:36, 4176.00, 0.00, 3.15, 3.60, 1009.8, 51.0610000, -36.9267720, , 44.70, 12.62, 45.80, 1010.20, -0.30, 0.0, 104.24, 59.49, 62.8, 267, 10.1, 38.28680, 35.09900, 10.1059, 35.0990, 38.2868, 131.00, 9.0908, 1486.65, 285.30, 277.5, 10.25, 13.2, 52
2008/03/28, 00:23:36, 4173.00, 0.00, 3.23, 3.70, 1009.7, 51.0631850, -36.9230600, , 60.70, 11.19, 43.50, 1010.26, 0.00, 0.0, 104.24, 58.83, 61.4, 299, 6.5, 38.28800, 35.09800, 10.1081, 35.0980, 38.2880, 129.50, 9.0971, 1486.67, 281.20, 283.7, 10.12, 6.9, 52
2008/03/28, 00:24:36, 4171.00, 0.00, 3.43, 3.80, 1010.1, 51.0655000, -36.9192530, , 53.20, 11.75, 43.30, 1009.74, 0.20, 0.0, 104.24, 63.32, 66.9, 307, 8.5, 38.29750, 35.10020, 10.1159, 35.1002, 38.2975, 129.20, 9.1036, 1486.69, 290.50, 308.5, 8.77, 6.4, 52
2008/03/28, 00:25:36, 4170.00, 0.00, 3.37, 3.90, 1009.3, 51.0677550, -36.9154830, , 51.00, 10.81, 43.80, 1009.84, 0.10, 0.0, 104.24, 61.88, 64.9, 279, 8.5, 38.29410, 35.09900, 10.1135, 35.0990, 38.2941, 128.90, 9.1072, 1486.71, 297.60, 287.7, 10.05, 9.7, 52
2008/03/28, 00:26:36, 4161.00, 0.00, 3.43, 3.80, 1009.7, 51.0699450, -36.9117930, , 46.00, 11.69, 42.40, 1009.97, -0.10, 0.0, 104.24, 60.62, 63.6, 288, 8.9, 38.30310, 35.09850, 10.1234, 35.0985, 38.3031, 129.80, 9.1089, 1486.71, 290.90, 293.2, 8.83, 8.6, 52
2008/03/28, 00:27:36, 4142.00, 0.00, 3.37, 3.80, 1009.3, 51.0721550, -36.9081020, , 36.40, 12.20, 39.50, 1009.87, 0.10, 0.0, 104.24, 60.62, 63.2, 296, 7.7, 38.31570, 35.09870, 10.1366, 35.0987, 38.3157, 127.60, 9.1092, 1486.72, 293.10, 292.6, 11.80, 9.2, 52
2008/03/28, 00:28:36, 4128.00, 0.00, 3.21, 3.70, 1009.3, 51.0743500, -36.9045170, , 48.30, 11.75, 45.40, 1010.08, -0.40, 0.0, 104.24, 58.09, 61.3, 284, 8.8, 38.32500, 35.09760, 10.1475, 35.0976, 38.3250, 128.00, 9.1075, 1486.71, 291.60, 286.8, 9.77, 9.3, 52
2008/03/28, 00:29:36, 4107.00, 0.00, 3.12, 3.70, 1009.5, 51.0766270, -36.9005930, , 49.50, 10.61, 46.00, 1010.12, 0.00, 0.0, 104.24, 58.06, 61.4, 276, 8.6, 38.32460, 35.09890, 10.1458, 35.0989, 38.3246, 129.20, 9.1039, 1486.69, 281.70, 283.9, 9.32, 10.8, 52
2008/03/28, 00:30:35, 4092.00, 0.00, 3.18, 3.70, 1009.7, 51.0788580, -36.8968200, , 41.00, 11.28, 43.50, 1011.03, -0.10, 0.0, 104.24, 58.93, 62.3, 294, 8.8, 38.33710, 35.09850, 10.1593, 35.0985, 38.3371, 129.80, 9.0996, 1486.68, 292.10, 297.2, 10.06, 9.1, 52
2008/03/28, 00:31:36, 4082.00, 0.00, 3.18, 3.70, 1009.6, 51.0811670, -36.8929450, , 53.60, 12.50, 41.10, 1009.95, -0.10, 0.0, 104.24, 60.31, 63.3, 293, 8.6, 38.34410, 35.10070, 10.1644, 35.1007, 38.3441, 129.80, 9.0968, 1486.67, 298.80, 297.3, 10.49, 8.5, 52
2008/03/28, 00:32:36, 4081.00, 0.00, 3.34, 3.70, 1009.2, 51.0834420, -36.8893120, , 46.50, 11.65, 43.50, 1010.22, 0.00, 0.0, 104.24, 60.78, 63.6, 298, 8.2, 38.34770, 35.09960, 10.1692, 35.0996, 38.3477, 130.80, 9.0940, 1486.66, 309.10, 304.7, 13.35, 9.6, 52
2008/03/28, 00:33:36, 4084.00, 0.00, 3.21, 3.70, 1009.3, 51.0856820, -36.8855170, , 47.80, 11.90, 42.70, 1010.24, 0.20, 0.0, 104.24, 59.88, 63.1, 302, 8.3, 38.35200, 35.09560, 10.1779, 35.0956, 38.3520, 132.30, 9.0925, 1486.65, 294.30, 298.9, 10.60, 8.2, 52
2008/03/28, 00:34:36, 4083.00, 0.00, 3.34, 3.70, 1009.7, 51.0879350, -36.8818070, , 35.40, 11.81, 48.20, 1010.74, 0.10, 0.0, 104.24, 62.12, 65.1, 290, 8.7, 38.35000, 35.09810, 10.1732, 35.0981, 38.3500, 129.20, 9.0934, 1486.66, 291.90, 293.8, 11.27, 10.6, 52
2008/03/28, 00:35:36, 4085.00, 0.00, 3.15, 3.70, 1010.2, 51.0901830, -36.8779570, , 43.90, 11.80, 45.20, 1010.14, -0.10, 0.0, 104.24, 59.54, 62.2, 259, 9.2, 38.34010, 35.09500, 10.1661, 35.0950, 38.3401, 131.00, 9.0975, 1486.67, 285.80, 276.4, 9.90, 13.0, 52
2008/03/28, 00:36:36, 4086.00, 0.00, 3.21, 3.70, 1009.4, 51.0923050, -36.8741980, , 55.50, 12.96, 39.50, 1010.35, -0.10, 0.0, 104.24, 60.39, 63.5, 283, 8.1, 38.33460, 35.09250, 10.1628, 35.0925, 38.3346, 131.00, 9.1042, 1486.69, 276.80, 284.8, 8.51, 9.2, 52
2008/03/28, 00:37:36, 4089.00, 0.00, 3.37, 3.70, 1009.7, 51.0945750, -36.8705570, , 39.70, 11.73, 42.40, 1010.66, -0.10, 0.0, 104.24, 63.01, 66.1, 296, 8.7, 38.32660, 35.09180, 10.1552, 35.0918, 38.3266, 130.80, 9.1135, 1486.72, 285.60, 296.6, 9.72, 9.1, 52
2008/03/28, 00:38:36, 4072.00, 0.00, 3.40, 3.80, 1009.7, 51.0968620, -36.8667030, , 40.00, 10.00, 43.80, 1009.81, 0.10, 0.0, 104.24, 62.57, 65.2, 283, 9.2, 38.32030, 35.09240, 10.1478, 35.0924, 38.3203, 127.60, 9.1232, 1486.76, 297.00, 288.4, 11.20, 10.8, 52
2008/03/28, 00:39:36, 4055.00, 0.00, 3.26, 3.80, 1009.6, 51.0991130, -36.8629720, , 51.90, 10.79, 43.80, 1009.91, 0.00, 0.0, 104.24, 59.96, 62.8, 286, 9.3, 38.31770, 35.09230, 10.1452, 35.0923, 38.3177, 127.60, 9.1352, 1486.80, 289.90, 290.0, 9.18, 9.0, 52
2008/03/28, 00:40:36, 4031.00, 0.00, 3.26, 3.70, 1010.0, 51.1013620, -36.8591970, , 39.10, 12.28, 41.50, 1010.48, -0.10, 0.0, 104.24, 58.33, 61.6, 280, 10.0, 38.32210, 35.09060, 10.1516, 35.0906, 38.3221, 129.20, 9.1498, 1486.86, 289.80, 289.0, 10.71, 11.8, 52
2008/03/28, 00:41:36, 4013.00, 0.00, 3.15, 3.70, 1009.6, 51.1035950, -36.8553380, , 51.30, 11.42, 44.10, 1010.63, 0.10, 0.0, 104.24, 57.77, 60.5, 292, 7.6, 38.31690, 35.09210, 10.1446, 35.0921, 38.3169, 127.60, 9.1681, 1486.92, 285.00, 290.4, 8.86, 7.8, 52
2008/03/28, 00:42:35, 3993.00, 0.00, 3.34, 3.70, 1009.4, 51.1058650, -36.8515970, , 44.20, 11.68, 45.50, 1010.08, 0.30, 0.0, 104.24, 61.20, 64.2, 277, 9.2, 38.32450, 35.09310, 10.1515, 35.0931, 38.3245, 127.40, 9.1892, 1487.00, 289.40, 286.8, 10.06, 11.2, 52
2008/03/28, 00:43:36, 3989.00, 0.00, 3.48, 3.80, 1010.3, 51.1081020, -36.8476970, , 63.90, 13.15, 45.90, 1009.73, 0.20, 0.0, 104.24, 61.52, 64.6, 288, 9.7, 38.33500, 35.09390, 10.1617, 35.0939, 38.3350, 125.60, 9.2060, 1487.06, 280.60, 292.1, 9.28, 10.1, 52
2008/03/28, 00:44:36, 4003.00, 0.00, 3.43, 3.80, 1009.4, 51.1103230, -36.8439120, , 45.40, 12.12, 43.30, 1010.34, 0.30, 0.0, 104.24, 61.49, 64.2, 287, 9.5, 38.35120, 35.09880, 10.1738, 35.0988, 38.3512, 123.40, 9.2185, 1487.11, 293.30, 296.0, 9.98, 10.1, 52
2008/03/28, 00:45:36, 4010.00, 0.00, 3.29, 3.80, 1009.9, 51.1125800, -36.8401530, , 37.30, 11.81, 46.80, 1010.32, 0.00, 0.0, 104.24, 59.33, 62.2, 284, 9.4, 38.37320, 35.10240, 10.1933, 35.1024, 38.3732, 121.20, 9.2305, 1487.16, 286.30, 289.7, 10.90, 11.8, 52
2008/03/28, 00:46:36, 4009.00, 0.00, 3.34, 3.80, 1009.9, 51.1147180, -36.8364070, , 29.00, 11.47, 41.80, 1010.46, 0.20, 0.0, 104.24, 60.31, 63.1, 284, 10.6, 38.38750, 35.10330, 10.2074, 35.1033, 38.3875, 120.40, 9.2441, 1487.22, 288.10, 294.6, 10.84, 12.6, 52
2008/03/28, 00:47:36, 3999.00, 0.00, 3.34, 3.80, 1009.5, 51.1169670, -36.8325780, , 43.40, 13.84, 47.00, 1009.92, -0.10, 0.0, 104.24, 58.38, 61.5, 269, 7.9, 38.40960, 35.10840, 10.2252, 35.1084, 38.4096, 117.60, 9.2549, 1487.26, 290.00, 278.1, 10.07, 10.5, 52
2008/03/28, 00:48:35, 3998.00, 0.00, 3.37, 3.80, 1009.8, 51.1191420, -36.8286650, , 48.20, 11.74, 44.20, 1010.68, -0.10, 0.0, 104.24, 60.99, 64.0, 262, 9.7, 38.43580, 35.11470, 10.2464, 35.1147, 38.4358, 114.30, 9.2621, 1487.29, 284.70, 278.3, 10.27, 13.2, 52
2008/03/28, 00:49:35, 3969.00, 0.00, 3.23, 3.80, 1009.3, 51.1214030, -36.8248430, , 35.90, 12.17, 40.10, 1010.07, 0.00, 0.0, 104.24, 58.33, 61.2, 274, 8.8, 38.47460, 35.12420, 10.2773, 35.1242, 38.4746, 112.80, 9.2742, 1487.35, 285.90, 285.1, 10.02, 11.6, 52
2008/03/28, 00:50:36, 3965.00, 0.00, 3.37, 3.80, 1009.4, 51.1236630, -36.8209800, , 42.00, 12.75, 42.10, 1010.35, 0.10, 0.0, 104.24, 61.41, 64.3, 290, 8.5, 38.49710, 35.12730, 10.2978, 35.1273, 38.4971, 109.50, 9.2903, 1487.41, 282.10, 289.2, 10.05, 10.0, 52
2008/03/28, 00:51:36, 3980.00, 0.00, 3.37, 3.80, 1009.6, 51.1258920, -36.8171820, , 42.90, 12.28, 41.50, 1010.11, -0.20, 0.0, 104.24, 59.46, 62.3, 279, 8.6, 38.50970, 35.12790, 10.3103, 35.1279, 38.5097, 109.50, 9.3055, 1487.47, 290.40, 291.1, 9.58, 10.5, 52
2008/03/28, 00:52:36, 3998.00, 0.00, 3.26, 3.80, 1009.4, 51.1280970, -36.8133830, , 56.20, 11.12, 45.50, 1009.60, -0.10, 0.0, 104.24, 59.30, 61.9, 264, 8.3, 38.51600, 35.12920, 10.3156, 35.1292, 38.5160, 107.10, 9.3237, 1487.53, 278.00, 269.7, 9.14, 11.1, 52
2008/03/28, 00:53:36, 4021.00, 0.00, 3.23, 3.70, 1009.9, 51.1302230, -36.8095480, , 43.30, 11.74, 43.50, 1009.93, -0.40, 0.0, 104.24, 58.25, 61.0, 288, 8.5, 38.53770, 35.13620, 10.3312, 35.1362, 38.5377, 106.80, 9.3435, 1487.61, 283.00, 292.0, 9.52, 9.4, 52
2008/03/28, 00:54:36, 4023.00, 0.00, 3.40, 3.70, 1009.6, 51.1324900, -36.8055900, , 57.80, 13.45, 43.60, 1010.28, -0.20, 0.0, 104.24, 61.18, 64.1, 268, 8.8, 38.56050, 35.14070, 10.3505, 35.1407, 38.5605, 102.80, 9.3621, 1487.69, 277.90, 275.2, 8.64, 11.2, 52
2008/03/28, 00:55:36, 4022.00, 0.00, 3.18, 3.70, 1009.1, 51.1347770, -36.8017980, , 53.60, 13.37, 47.00, 1010.73, -0.50, 0.0, 104.24, 59.73, 62.3, 265, 8.3, 38.56410, 35.13730, 10.3577, 35.1373, 38.5641, 103.70, 9.3780, 1487.74, 284.10, 273.3, 10.08, 11.7, 52
2008/03/28, 00:56:36, 4013.00, 0.00, 3.48, 3.70, 1009.5, 51.1369800, -36.7978470, , 54.40, 13.55, 43.70, 1009.94, -0.40, 0.0, 104.24, 62.46, 65.3, 282, 9.5, 38.56590, 35.13880, 10.3581, 35.1388, 38.5659, 101.90, 9.3904, 1487.79, 278.90, 288.5, 8.19, 9.5, 52
2008/03/28, 00:57:36, 3994.00, 0.00, 3.18, 3.70, 1009.3, 51.1391870, -36.7938680, , 53.40, 14.16, 45.50, 1010.18, -0.20, 0.0, 104.24, 58.85, 61.8, 270, 9.0, 38.58550, 35.14720, 10.3699, 35.1472, 38.5855, 100.00, 9.4006, 1487.84, 280.40, 275.5, 8.06, 10.2, 52
2008/03/28, 00:58:36, 3972.00, 0.00, 3.40, 3.70, 1009.6, 51.1414130, -36.7899020, , 64.50, 13.05, 44.20, 1010.71, -0.20, 0.0, 104.24, 59.57, 62.7, 274, 7.5, 38.62110, 35.15190, 10.4024, 35.1519, 38.6211, 101.00, 9.4088, 1487.87, 279.00, 274.0, 9.42, 9.9, 52
2008/03/28, 00:59:36, 3945.00, 0.00, 3.43, 3.80, 1009.9, 51.1435980, -36.7860370, , 53.80, 12.74, 44.20, 1010.25, 0.20, 0.0, 104.24, 61.28, 64.4, 287, 8.3, 38.63970, 35.15350, 10.4203, 35.1535, 38.6397, 102.20, 9.4139, 1487.89, 272.90, 283.4, 9.45, 9.7, 52
2008/03/28, 01:00:36, 3941.00, 0.00, 3.43, 3.80, 1009.9, 51.1457870, -36.7820230, , 54.00, 11.56, 45.80, 1009.87, -0.10, 0.0, 104.24, 59.33, 62.1, 278, 9.4, 38.66170, 35.15570, 10.4411, 35.1557, 38.6617, 103.40, 9.4155, 1487.90, 289.90, 290.5, 8.97, 10.4, 52
2008/03/28, 01:01:36, 3969.00, 0.00, 3.32, 3.80, 1009.4, 51.1480050, -36.7779400, , 56.10, 12.81, 44.90, 1010.18, -0.20, 0.0, 104.24, 58.99, 61.8, 266, 8.0, 38.68570, 35.15570, 10.4663, 35.1557, 38.6857, 104.60, 9.4140, 1487.89, 276.60, 269.6, 9.13, 10.9, 52
2008/03/28, 01:02:36, 3987.00, 0.00, 3.12, 3.70, 1009.7, 51.1502820, -36.7737920, , 46.00, 12.99, 46.90, 1010.47, -0.20, 0.0, 104.24, 59.30, 62.1, 268, 6.2, 38.69670, 35.15450, 10.4789, 35.1545, 38.6967, 105.20, 9.4069, 1487.87, 281.20, 271.6, 10.58, 10.3, 52
2008/03/28, 01:03:36, 3987.00, 0.00, 3.37, 3.80, 1009.3, 51.1524380, -36.7696900, , 50.90, 12.91, 41.90, 1009.70, 0.20, 0.0, 104.24, 61.39, 64.6, 274, 8.4, 38.70420, 35.15330, 10.4881, 35.1533, 38.7042, 106.20, 9.3936, 1487.82, 269.10, 275.0, 8.11, 9.9, 52
2008/03/28, 01:04:36, 3995.00, 0.00, 3.34, 3.80, 1009.2, 51.1546920, -36.7654180, , 45.50, 13.53, 41.90, 1009.88, 0.00, 0.0, 104.24, 61.15, 64.3, 288, 10.2, 38.71400, 35.15170, 10.5000, 35.1517, 38.7140, 106.20, 9.3713, 1487.74, 281.30, 298.2, 9.53, 11.5, 52
2008/03/28, 01:05:35, 3998.00, 0.00, 3.43, 3.90, 1009.1, 51.1569180, -36.7614330, , 46.80, 13.41, 43.60, 1009.80, 0.10, 0.0, 104.24, 62.38, 65.4, 288, 8.6, 38.71540, 35.14890, 10.5044, 35.1489, 38.7154, 106.40, 9.3324, 1487.59, 284.60, 291.5, 9.46, 10.3, 52
2008/03/28, 01:06:36, 3997.00, 0.00, 3.40, 3.90, 1009.2, 51.1592600, -36.7571620, , 50.00, 14.33, 40.40, 1010.43, 0.20, 0.0, 104.24, 60.39, 63.1, 305, 7.1, 38.71740, 35.14740, 10.5081, 35.1474, 38.7174, 107.10, 9.2730, 1487.37, 287.30, 291.1, 11.44, 8.2, 52
2008/03/28, 01:07:36, 4002.00, 0.00, 3.46, 3.90, 1008.8, 51.1615330, -36.7529820, , 50.90, 12.50, 43.20, 1010.00, 0.10, 0.0, 104.24, 63.12, 65.9, 288, 7.2, 38.71980, 35.14360, 10.5145, 35.1436, 38.7198, 108.60, 9.1959, 1487.09, 279.10, 280.0, 9.57, 9.3, 52
2008/03/28, 01:08:36, 4002.00, 0.00, 3.32, 3.90, 1009.1, 51.1638670, -36.7489130, , 41.80, 13.22, 41.90, 1010.18, 0.20, 0.0, 104.24, 61.91, 64.7, 288, 8.4, 38.71000, 35.14140, 10.5065, 35.1414, 38.7100, 108.90, 9.0892, 1486.69, 290.20, 289.7, 11.45, 10.9, 52
2008/03/28, 01:09:36, 4005.00, 0.00, 3.40, 3.80, 1009.2, 51.1661120, -36.7448550, , 51.70, 13.49, 41.90, 1010.27, 0.10, 0.0, 104.24, 63.01, 65.5, 285, 9.5, 38.70520, 35.13680, 10.5062, 35.1368, 38.7052, 110.40, 8.9337, 1486.12, 292.80, 294.5, 9.91, 10.6, 52
2008/03/28, 01:10:36, 4007.00, 0.00, 3.26, 3.80, 1009.2, 51.1683980, -36.7410500, , 39.30, 13.01, 44.20, 1009.87, 0.00, 0.0, 104.24, 61.78, 64.3, 266, 8.4, 38.69670, 35.13230, 10.5019, 35.1323, 38.6967, 110.80, 8.7426, 1485.41, 282.30, 275.6, 8.87, 10.9, 52
2008/03/28, 01:11:36, 4004.00, 0.00, 3.43, 3.80, 1009.4, 51.1706430, -36.7370930, , 60.80, 13.57, 40.70, 1009.89, -0.30, 0.0, 104.24, 63.45, 65.8, 276, 7.9, 38.68250, 35.12930, 10.4902, 35.1293, 38.6825, 110.80, 8.5420, 1484.66, 278.80, 276.2, 8.93, 9.9, 52
2008/03/28, 01:12:35, 3999.00, 0.00, 3.18, 3.70, 1009.2, 51.1729150, -36.7333020, , 49.70, 12.47, 46.40, 1010.20, -0.20, 0.0, 104.24, 61.18, 64.2, 282, 8.0, 38.64170, 35.12580, 10.4510, 35.1258, 38.6417, 110.80, 8.3586, 1483.97, 276.30, 282.3, 9.00, 10.0, 52
2008/03/28, 01:13:36, 3975.00, 0.00, 3.23, 3.70, 1009.4, 51.1751920, -36.7294350, , 41.20, 10.18, 44.10, 1010.10, -0.10, 0.0, 104.24, 63.01, 65.6, 292, 9.4, 38.58270, 35.11630, 10.3990, 35.1163, 38.5827, 112.30, 8.2052, 1483.39, 282.90, 296.4, 10.21, 11.7, 52
2008/03/28, 01:14:36, 3951.00, 0.00, 3.37, 3.70, 1009.2, 51.1774020, -36.7256600, , 40.90, 11.54, 43.50, 1009.68, 0.00, 0.0, 104.24, 64.34, 67.1, 265, 8.0, 38.47640, 35.10230, 10.3018, 35.1023, 38.4764, 112.60, 8.1010, 1482.98, 283.80, 273.9, 9.37, 11.4, 52
2008/03/28, 01:15:36, 3930.00, 0.00, 3.34, 3.80, 1009.6, 51.1795720, -36.7218720, , 50.40, 10.67, 42.80, 1009.48, 0.10, 0.0, 104.24, 63.40, 65.9, 268, 11.7, 38.38280, 35.09350, 10.2125, 35.0935, 38.3828, 111.80, 8.0060, 1482.60, 294.60, 289.0, 9.35, 13.6, 52
2008/03/28, 01:16:36, 3905.00, 0.00, 3.18, 3.70, 1009.1, 51.1817430, -36.7181200, , 44.00, 13.38, 42.90, 1009.89, -0.10, 0.0, 104.24, 60.10, 63.3, 257, 9.7, 38.20220, 35.06050, 10.0564, 35.0605, 38.2022, 110.10, 7.9391, 1482.32, 283.90, 270.4, 9.79, 12.8, 52
2008/03/28, 01:17:36, 4054.00, 0.00, 3.18, 3.70, 1009.1, 51.1839320, -36.7143930, , 31.10, 10.86, 45.40, 1009.56, -0.20, 0.0, 104.24, 58.22, 61.7, 273, 7.1, 37.96700, 35.02780, 9.8418, 35.0278, 37.9670, 118.20, 7.8910, 1482.10, 284.90, 278.7, 10.63, 10.6, 52
2008/03/28, 01:18:36, 3898.00, 0.00, 3.23, 3.70, 1009.4, 51.1860870, -36.7105920, , 46.40, 11.63, 43.40, 1009.95, -0.20, 0.0, 104.24, 58.85, 61.4, 271, 8.7, 37.68320, 34.99620, 9.5739, 34.9962, 37.6832, 124.30, 7.8545, 1481.92, 279.50, 278.6, 8.75, 11.1, 52
2008/03/28, 01:19:36, 3915.00, 0.00, 3.18, 3.70, 1009.2, 51.1883000, -36.7068080, , 36.30, 11.81, 42.10, 1009.84, -0.30, 0.0, 104.24, 57.56, 60.3, 259, 7.2, 37.41130, 34.97150, 9.3105, 34.9715, 37.4113, 121.00, 7.8275, 1481.78, 284.60, 271.8, 9.48, 11.2, 52
2008/03/28, 01:20:36, 3907.00, 0.00, 3.40, 3.70, 1009.2, 51.1904570, -36.7029820, , 39.40, 11.53, 45.40, 1010.12, -0.30, 0.0, 104.24, 60.89, 64.0, 263, 9.4, 37.21790, 34.96420, 9.1121, 34.9642, 37.2179, 111.50, 7.8072, 1481.70, 286.00, 278.2, 9.61, 12.1, 52
2008/03/28, 01:21:36, 0.00, 0.00, 3.23, 3.80, 1009.2, 51.1926470, -36.6991030, , 30.00, 12.26, 46.20, 1009.88, -0.10, 0.0, 104.24, 58.93, 62.2, 273, 9.8, 37.09560, 34.96040, 8.9857, 34.9604, 37.0956, 110.10, 7.7898, 1481.63, 282.60, 284.7, 10.55, 13.4, 52
2008/03/28, 01:22:35, 3848.00, 0.00, 3.23, 3.70, 1009.2, 51.1947700, -36.6952750, , 51.60, 12.01, 44.60, 1009.82, -0.20, 0.0, 104.24, 57.93, 61.1, 257, 7.9, 37.01060, 34.96110, 8.8943, 34.9611, 37.0106, 108.90, 7.7752, 1481.57, 286.00, 270.3, 9.74, 11.2, 52
2008/03/28, 01:23:36, 3873.00, 0.00, 3.37, 3.70, 1009.3, 51.1969030, -36.6916320, , 44.40, 12.97, 45.30, 1009.56, -0.40, 0.0, 104.24, 59.36, 62.0, 257, 10.2, 36.96050, 34.96710, 8.8348, 34.9671, 36.9605, 109.80, 7.7631, 1481.53, 279.80, 272.4, 10.54, 13.9, 52
2008/03/28, 01:24:36, 3855.00, 0.00, 3.15, 3.70, 1008.9, 51.1989170, -36.6877730, , 59.70, 10.99, 42.80, 1010.11, -0.10, 0.0, 104.24, 56.60, 59.7, 256, 8.0, 36.95870, 34.97030, 8.8298, 34.9703, 36.9587, 108.00, 7.7542, 1481.50, 279.40, 266.3, 9.95, 11.6, 52
2008/03/28, 01:25:36, 3874.00, 0.00, 3.26, 3.70, 1009.5, 51.2010780, -36.6839550, , 58.10, 12.35, 44.10, 1009.84, -0.20, 0.0, 104.24, 57.05, 59.9, 267, 7.1, 36.95410, 34.97460, 8.8204, 34.9746, 36.9541, 108.00, 7.7464, 1481.48, 280.40, 269.9, 9.40, 9.4, 52
2008/03/28, 01:26:36, 3874.00, 0.00, 3.34, 3.70, 1009.1, 51.2032350, -36.6801130, , 37.50, 11.49, 44.20, 1009.90, -0.30, 0.0, 104.24, 59.20, 62.5, 257, 7.5, 36.94640, 34.97440, 8.8125, 34.9744, 36.9464, 107.40, 7.7389, 1481.45, 282.70, 272.5, 10.29, 12.6, 52
2008/03/28, 01:27:36, 3879.00, 0.00, 3.32, 3.70, 1009.2, 51.2053280, -36.6761920, , 56.80, 12.21, 46.30, 1009.73, -0.10, 0.0, 104.24, 58.06, 60.9, 253, 6.7, 36.94560, 34.97470, 8.8113, 34.9747, 36.9456, 108.00, 7.7314, 1481.42, 279.10, 263.2, 9.74, 11.2, 52
2008/03/28, 01:28:36, 3888.00, 0.00, 3.12, 3.70, 1009.3, 51.2074250, -36.6722980, , 52.20, 12.88, 41.90, 1009.71, -0.20, 0.0, 104.24, 56.60, 59.7, 281, 6.7, 36.95100, 34.97690, 8.8148, 34.9769, 36.9510, 108.30, 7.7221, 1481.39, 282.70, 281.1, 9.01, 8.5, 52
2008/03/28, 01:29:36, 3890.00, 0.00, 3.23, 3.70, 1008.7, 51.2096300, -36.6683300, , 40.60, 11.44, 43.20, 1009.70, 0.00, 0.0, 104.24, 57.00, 59.4, 261, 7.2, 36.95700, 34.97850, 8.8196, 34.9785, 36.9570, 108.30, 7.7090, 1481.34, 280.80, 270.5, 10.51, 11.9, 52
2008/03/28, 01:30:36, 3897.00, 0.00, 3.18, 3.70, 1009.4, 51.2117480, -36.6644780, , 50.90, 12.07, 43.20, 1010.20, 0.30, 0.0, 104.24, 57.93, 60.5, 268, 8.2, 36.94790, 34.97700, 8.8115, 34.9770, 36.9479, 107.70, 7.6927, 1481.28, 281.90, 279.0, 9.39, 11.2, 52